Other Public Products
Issued by NWS Grand Forks, ND

Home | Current Version | Previous Version | Text Only | Print | Product List | Glossary Off
Versions: 1 2 3 4 5 6 7 8 9 10 11 12 13 14 15 16 17 18 19 20 21 22 23 24 25 26 27 28 29 30 31 32 33 34 35 36 37 38 39 40 41 42 43 44 45 46 47 48 49 50

000
FPUS83 KFGF 190710
OPUFGF
PRAIRIE TO PINES WEATHER ROUNDUP
NATIONAL WEATHER SERVICE EASTERN NORTH DAKOTA/GRAND FORKS ND
200 AM CDT THU APR 19 2018

 **SATELLITE DATA USED TO AUGMENT SKY COVER AT AUTOMATED STATIONS**
 *****  WEATHER ACROSS EASTERN NORTH DAKOTA  *****

CITY           SKY/WX    TMP DP  RH WIND       PRES   REMARKS
GRAND FORKS    FAIR      30  29  96 CALM      30.32R
GRND FORKS AFB FAIR      31  29  96 CALM      30.31R
GRND FORKS NWS NOT AVBL
BUXTON           N/A     36  28  72 N6          N/A
DEVILS LAKE    FAIR      32  25  75 CALM      30.33R
FARGO          FAIR      32  29  88 CALM      30.31R
WAHPETON ARPT  FAIR      32  30  93 NW5       30.32R
$$

 *****  WEATHER ACROSS CENTRAL AND WESTERN NORTH DAKOTA  *****

CITY           SKY/WX    TMP DP  RH WIND       PRES   REMARKS
JAMESTOWN      FAIR      31  27  85 NW6       30.31R
BISMARCK       FAIR      25  24  96 CALM      30.34R
MINOT          CLOUDY    36  33  89 W7        30.34R
MINOT AFB      CLOUDY    36  34  94 NW8       30.33R
GARRISON         N/A     31  29  92 CALM      30.33R
WILLISTON      CLOUDY    33  32  96 NE7       30.35R FOG
DICKINSON      FOG       30  29  96 CALM      30.30R VSB 1/4
HETTINGER      FAIR      24  22  91 CALM      30.32S
$$

 *****  OTHER OBSERVATIONS NORTHEAST NORTH DAKOTA  *****

CITY           SKY/WX    TMP DP  RH WIND       PRES   REMARKS
WALHALLA       FAIR      32  32 100 SW5       30.31R
LANGDON        FAIR      34  34 100 S3        30.31R
CAVALIER         N/A     34  28  80 CALM      30.31R
GRAFTON        FAIR      32  30  93 CALM      30.34R
CANDO          FAIR      34  30  86 N7        30.33R
FORT TOTTEN      N/A     37  19  47 CALM      29.95S
ROLLA          FAIR      32  32 100 NW7       30.32R
RUGBY          FAIR      30  30 100 NW3       30.31R
 ***** THE ABOVE OBSERVATIONS ARE NON NWS ARE NOT QUALITY
        CONTROLLED AND MAY MIS-REPORT RAIN FOR SNOW...
$$

 *****  OTHER OBSERVATIONS SOUTHEAST NORTH DAKOTA *****

CITY           SKY/WX    TMP DP  RH WIND       PRES   REMARKS
COOPERSTOWN    FAIR      32  30  93 NW5       30.32R
VALLEY CITY    FAIR      32  32 100 CALM      30.32S
OAKES            N/A     32  30  93 W6        30.32R
GWINNER          N/A     34  28  80 CALM      30.31R
SHEYENNE NWR     N/A     28  28 100 NW2       29.95S
BUFFALO          N/A     32  25  74 SW5         N/A
WYNDMERE       NOT AVBL
 ***** THE ABOVE OBSERVATIONS ARE NON NWS ARE NOT QUALITY
       CONTROLLED AND MAY MIS-REPORT RAIN FOR SNOW...
$$

  *****  WEATHER ACROSS NORTHERN MINNESOTA  *****

CITY           SKY/WX    TMP DP  RH WIND       PRES   REMARKS
FLAG ISLAND    FAIR      28  12  50 CALM      30.29S
WARROAD        FAIR      27  18  69 CALM      30.31R
ROSEAU         FAIR      28  23  80 CALM      30.31R
HALLOCK        FAIR      34  28  80 SE3       30.31S
THF RVR FALLS  FAIR      30  23  75 CALM      30.32R
HALSTAD        NOT AVBL
FOSSTON        FAIR      27  16  63 CALM      30.32R
BAUDETTE       FAIR      27  20  75 CALM      30.29R
WASKISH        FAIR      25  19  80 CALM      30.30R
CROOKSTON      FAIR      32  28  86 N6        30.33R
$$
  *****  WEATHER ACROSS CENTRAL AND WEST MINNESOTA  *****

CITY           SKY/WX    TMP DP  RH WIND       PRES   REMARKS
BEMIDJI        FAIR      26  19  76 CALM      30.29S
PARK RAPIDS    FAIR      27  18  69 W5        30.29R WCI  22
WADENA         FAIR      27  19  74 CALM      30.30R
DETROIT LAKES  FAIR      32  25  74 CALM      30.32R
MOORHEAD       FAIR      34  28  80 CALM      30.32R
FERGUS FALLS   FAIR      36  25  64 NE3       30.31R
ELBOW LAKE     FAIR      33  29  86 CALM      30.32R
MORRIS MN      FAIR      34  28  80 NW3       30.31R
STAPLES        FAIR      25  18  74 CALM      30.30R
WHEATON        FAIR      34  30  86 W3        30.34R
$$
  *****  WEATHER ELSEWHERE ACROSS MINNESOTA  *****

CITY           SKY/WX    TMP DP  RH WIND       PRES   REMARKS
DULUTH         FAIR      29  11  47 N8        30.25R WCI  21
INTRNTL FALLS  FAIR      24  18  77 CALM      30.29R
ELY            FAIR      21  18  86 CALM      30.27R
CLOQUET        FAIR      27  10  50 NW8       30.26R WCI  18
BRAINERD       FAIR      28  17  63 CALM      30.29R
HIBBING        FAIR      22  17  81 CALM      30.27R
ALEXANDRIA     FAIR      33  21  61 W3        30.31R
SAINT CLOUD    FAIR      29  16  58 N3        30.29R
MINNEAPOLIS    FAIR      30  17  58 NW5       30.28R
$$

  *****  WEATHER ACROSS SOUTH DAKOTA  *****

CITY           SKY/WX    TMP DP  RH WIND       PRES   REMARKS
SIOUX FALLS    FAIR      32  25  75 N9        30.30R WCI  24
BROOKINGS      FAIR      32  28  85 CALM      30.31R
WATERTOWN      FAIR      30  28  92 NW6       30.31R WCI  24
HURON          FAIR      29  27  92 NW3       30.33R
SISSETON         N/A     35  29  78 W7        30.31R
ABERDEEN       FAIR      28  27  96 W3        30.34R
MITCHELL       FAIR      32  28  85 NW5       30.34R
PIERRE         FAIR      28  25  88 W5        30.33R WCI  23
MOBRIDGE       FAIR      27  23  85 CALM      30.31R
RAPID CITY     FAIR      33  31  92 CALM      30.30S
$$

  *****  SOME WEATHER IN NEARBY STATES *****

CITY           SKY/WX    TMP DP  RH WIND       PRES   REMARKS
GLASGOW MT     NOT AVBL
GREAT FALLS MT FAIR      36  25  64 E9        30.13F
CHEYENNE WY    FAIR      30  19  63 W3        30.27S
SCOTTSBLUFF NE FAIR      32  25  75 E9        30.29S WCI  24
OMAHA NE       FAIR      32  29  88 N8        30.29R WCI  25
DES MOINES IA  FAIR      31  27  85 NW7       30.24R WCI  24
DAVENPORT IA   CLOUDY    31  29  92 NW13      30.14R WCI  21
CHICAGO IL     LGT SNOW  32  32 100 N12       30.00R FOG     WCI  23
EAU CLAIRE WI  FAIR      27  15  61 CALM      30.21R
LA CROSSE WI   FAIR      28  26  92 CALM      30.19R
$$

  *****  SOME NATIONAL WEATHER *****

CITY           SKY/WX    TMP DP  RH WIND       PRES   REMARKS
LA GUARDIA NY  LGT RAIN  46  35  65 E6        29.73F
RALEIGH NC     FAIR      69  47  45 W13       29.70F
ATLANTA GA     FAIR      65  55  70 SW10      29.93F
NEW ORLEANS LA FAIR      66  65  96 SW6       30.06F
OKLAHOMA CITY  FAIR      48  27  44 N6        30.28R
ALBUQUERQUE NM FAIR      55  11  17 E25       30.15R
SALT LAKE CITY FAIR      46  31  55 S8        29.94F
LOS ANGELES CA MOCLDY    56  45  66 W12       30.02R
BOISE ID       CLOUDY    52  29  41 W7        29.93F
SEATTLE WA     MOCLDY    49  41  74 N9        30.19S
$$

*** WEATHER ACROSS MANITOBA...SASKATCHEWAN AND ONTARIO ***
                ***ONTARIO***

CITY           SKY/WX    TMP DP  RH WIND       PRES   REMARKS
GERALDTON      CLEAR     25  18  74 N6        30.22R WCI  18
THUNDER BAY    CLEAR     25  18  74 W3        30.25R
SIOUX LOOKOUT  NOT AVBL
TORONTO        CLOUDY    34  25  69 N12       29.79R
BIG TROUT LK   CLEAR     21  12  68 S6        30.28F WCI  14
PICKLE LAKE    NOT AVBL
DRYDEN         CLEAR     30  14  51 E3        30.28S
KENORA         CLEAR     34  16  47 E2        30.29R
$$
                *** MANITOBA***

CITY           SKY/WX    TMP DP  RH WIND       PRES   REMARKS
BRANDON        PTCLDY    32  30  93 W9        30.32R WCI  24
DAUPHIN        MOCLDY    36  32  87 W10       30.31R
ISLAND LAKE    CLEAR     28  14  54 SE3       30.24S
PILOT MOUND      N/A     34  27  75 NW5         N/A
THE PAS        CLEAR     34  27  75 W9        30.25R
THOMPSON       PTCLDY    34  28  80 W5        30.20R
WINNIPEG       MOCLDY    34  21  60 SW3       30.30R
LYNN LAKE      CLEAR     28  25  86 SW5       30.17R WCI  23
CHURCHILL      CLOUDY    36  28  75 SW12      30.07S
GILLAM         PTCLDY    36  16  44 SW8       30.17R
$$
                ***SASKATCHEWAN***

CITY           SKY/WX    TMP DP  RH WIND       PRES   REMARKS
ESTEVAN        FOG       30  30 100 W7        30.35R VSB 1/8 WCI  23
KINDERSLEY     PTCLDY    37  30  75 SE13G20   30.21S
LLOYDMINSTER   CLEAR     32  25  74 S8        30.20R WCI  25
PRINCE ALBERT  CLEAR     27  23  86 SE2       30.29R
REGINA         FOG       25  25 100 S3        30.33R VSB 1
YORKTON        PTCLDY    32  27  80 SW12      30.31R WC



USA.gov is the U.S. government's official web portal to all federal, state and local government web resources and services.